Find Starlink 34527

NORAD ID: 64482 Int'l Des: 2025-133 Owner: SPXS Country: US Constellation: starlink operational
LEOCIRCULAR

現在のビュー

3D地球を読み込み中...

About Starlink 34527

Starlink 34527 (NORAD 64482) is a starlink constellation satellite (v2 mini) launched Jun 23, 2025 by SPXS of US. It operates in LEO, CIRCULAR orbit with a mass of 575.00 kg.

次回通過

Passes for default location (London). Set your location on the main map for personalized predictions.

高度履歴

Loading altitude history...

軌道要素

1 64482U 25133L 26263.39054929 .00009852 00000-0 30238-3 0 9991
2 64482 53.1581 289.9063 0001269 87.4858 272.6290 15.34393935 71027
Epoch: Sep 20, 2026 • Age: 23 hours

現在のステータス

高度 462.7 km
遠地点 / 近地点 N/A
速度 7.64 km/s
衛星直下点 18.78°N, 28.43°W
打ち上げ日 Jun 23, 2025
運用期間 1.2 years
タイプ internet

技術仕様

分類 Payload
質量 575.00 kg
乾燥質量 530.00 kg
長さ 0.30 m
スパン 29.00 m
形状 ? Box + pan
製造者 SPXS
バスタイプ Starlink V2MO
フェーズステータス In Orbit
所有者/国 SPXS/US

Most Searched